RH
20 7 8 8 7 7 7 9 10 11 10 8 4 2 2 2 2 3 7 12 14 15 16 17 16 17 18 20 22 24 25 26 27
13 8 8 8 9 7 7 11 16 20 18 12 5 2 2 2 2 4 10 13 15 16 16 17 18 17 19 19 21 24 25 26 28
13 9 9 9 9 8 8 11 19 23 16 9 6 2 2 2 2 5 10 14 16 16 17 17 18 18 19 20 21 23 24 23 26
13 10 10 10 9 7 10 10 17 21 15 10 6 2 2 2 2 5 10 14 15 16 17 18 19 19 20 21 22 24 25 25 26
14 12 10 10 8 8 11 12 16 17 15 11 7 2 2 2 3 5 9 12 14 15 17 18 19 20 20 21 22 23 24 25 27
16 13 12 11 8 8 10 14 16 19 18 12 8 3 2 3 3 5 7 10 12 14 15 17 17 18 20 21 22 24 23 25 27
21 14 15 13 9 9 9 12 14 19 17 13 10 5 3 3 4 6 7 8 10 11 12 14 16 18 20 22 23 24 24 26 28
25 18 17 15 12 11 12 16 18 17 16 14 12 7 4 3 4 6 7 8 8 9 10 12 16 18 21 23 24 25 26 24 26
28 21 19 18 13 13 16 19 19 16 14 14 16 14 8 6 5 6 6 7 8 10 12 16 19 21 22 24 25 25 22 18 26
31 28 25 23 21 18 18 16 16 17 14 14 17 17 17 15 14 13 14 14 15 18 20 21 22 23 24 26 26 25 18 25 36
38 36 32 27 23 22 21 16 15 18 16 15 15 16 17 18 19 19 19 20 21 21 21 22 23 24 25 24 23 19 33 44 49
40 39 37 30 28 24 19 15 16 19 18 17 17 17 17 17 18 19 19 19 20 21 23 24 25 24 20 19 18 19 35 48 57
44 41 38 34 30 22 18 16 16 19 19 19 19 19 19 18 17 16 17 19 18 20 22 22 18 16 16 21 28 37 50 57 57
47 44 39 35 30 21 20 18 18 20 20 21 21 20 18 17 17 18 19 16 16 16 16 14 18 40 60 65 67 62 60 67 65
53 46 42 35 29 25 23 22 22 23 22 21 19 19 18 18 18 17 13 14 16 21 31 38 58 67 62 64 68 64 72 74 66
56 48 42 35 32 29 26 24 24 23 22 21 20 18 16 15 14 14 19 38 49 59 62 73 73 64 57 64 62 65 75 68 63
54 47 42 38 33 31 28 26 23 21 18 16 17 15 15 15 23 51 62 67 65 63 69 66 57 48 59 38 40 50 57 55 56
49 40 34 30 27 23 20 20 17 18 16 16 18 17 19 29 68 74 74 74 69 68 57 60 48 41 14 10 18 22 36 58 60
58 47 36 34 30 26 24 22 21 19 18 19 23 33 65 73 84 84 78 68 64 48 47 53 30 15 10 9 9 10 11 36 64
53 50 43 42 36 32 29 26 24 20 22 30 39 89 81 89 75 79 70 57 40 22 17 16 11 10 9 9 7 6 8 11 17
Wind_Speed
15 16 17 15 12 9 7 5 2 1 3 4 4 2 3 5 5 6 6 2 0 2 4 6 8 10 12 14 15 16 16 17 18
17 18 18 17 14 11 9 7 3 3 6 6 4 3 4 5 6 7 6 3 2 3 5 7 8 11 13 15 17 18 18 18 19
21 19 19 17 16 14 11 9 5 6 8 6 4 4 4 6 7 7 6 4 3 4 6 8 10 12 14 16 18 20 20 21 22
23 21 21 19 17 16 13 11 8 6 8 7 5 4 6 7 8 9 8 7 6 6 7 9 11 14 16 17 19 21 21 21 23
26 23 22 20 19 18 15 13 10 6 8 8 6 6 7 9 10 10 10 9 8 7 8 10 12 14 16 19 20 22 23 23 23
28 25 23 21 20 19 17 14 11 8 10 9 8 8 8 9 10 10 9 10 10 10 10 12 14 17 18 20 22 23 25 27 26
29 28 25 22 21 20 18 15 13 10 12 10 10 9 9 9 10 10 11 11 11 11 13 15 16 18 20 22 24 25 26 29 30
30 28 25 23 22 21 19 16 15 13 12 12 10 9 10 9 10 11 12 12 12 13 14 16 18 20 22 24 26 28 29 30 31
29 28 27 26 23 22 20 18 17 15 14 12 12 10 11 10 10 12 11 12 14 14 15 17 20 23 25 26 28 30 33 33 33
32 30 28 27 25 23 22 20 19 17 15 14 14 13 13 12 12 13 14 15 16 17 19 21 23 25 26 28 30 31 32 34 34
33 32 30 28 27 25 25 23 22 20 17 16 15 15 14 15 15 17 17 18 19 22 23 25 26 27 28 30 32 31 33 34 36
34 33 31 30 29 27 26 25 24 22 19 18 17 17 17 18 19 20 21 22 24 24 26 26 28 29 30 32 33 32 33 34 35
37 34 33 32 30 29 28 26 25 22 21 20 20 20 20 21 22 22 24 23 25 26 28 29 30 30 31 33 34 34 36 33 35
36 35 34 33 32 31 29 27 26 23 23 23 23 22 22 23 22 23 24 26 26 28 28 29 29 29 31 34 35 36 35 34 36
37 37 36 35 34 32 30 29 27 25 26 24 24 24 23 24 24 24 25 25 26 27 27 28 28 28 31 32 33 35 35 36 38
38 38 38 37 36 34 33 30 28 28 27 26 26 24 26 28 27 24 25 27 27 27 26 25 27 30 33 34 31 32 29 33 35
39 38 38 37 36 35 32 30 29 30 29 29 25 27 29 26 26 25 25 24 25 25 26 26 25 27 23 23 23 24 26 31 33
41 40 39 38 37 35 33 34 32 32 31 28 26 27 26 28 25 26 26 26 26 25 23 21 21 21 20 22 24 26 29 29 32
42 40 40 40 37 37 36 35 34 32 30 28 27 27 26 28 29 31 29 25 21 22 19 17 20 19 20 25 30 32 34 35 37
43 43 41 40 40 40 39 37 36 35 31 29 31 29 32 28 25 26 25 21 22 20 19 18 19 22 25 28 36 37 38 39 41
Wind_Direction
225 221 217 221 226 223 221 221 203 348 356 337 311 285 234 209 193 178 168 165 304 350 349 348 348 348 348 348 346 346 344 343 343
223 222 220 219 225 227 226 219 208 325 313 297 288 271 242 219 205 187 179 190 257 326 332 334 336 336 339 337 337 339 341 337 337
224 222 221 222 221 224 222 221 222 304 300 284 273 257 238 224 210 200 201 214 252 298 315 322 326 326 327 329 329 334 338 336 333
225 221 221 219 223 223 223 222 231 282 285 279 269 245 231 222 213 211 216 226 245 280 304 312 316 318 318 321 324 329 333 332 331
222 223 221 218 218 220 224 225 236 257 281 276 264 244 228 219 216 218 227 237 248 265 284 296 303 305 310 314 318 320 326 325 325
223 224 223 221 219 221 223 228 235 249 271 268 261 251 231 225 222 230 237 245 254 261 274 289 297 301 305 309 314 317 319 319 320
223 222 224 223 222 223 225 229 236 248 265 256 252 249 240 233 229 235 244 248 255 264 275 285 293 298 302 306 309 313 314 316 318
224 225 225 226 223 224 225 231 242 244 254 252 248 248 245 239 241 240 247 253 262 271 278 286 294 298 301 305 306 308 313 313 314
223 223 223 225 223 225 228 234 240 240 247 247 249 251 252 244 246 252 259 267 271 276 284 291 295 298 300 303 305 311 312 313 311
219 221 221 225 226 227 233 236 238 237 241 242 247 248 258 261 263 268 271 274 279 284 287 291 292 296 300 302 305 308 310 309 309
219 222 225 227 229 231 236 233 235 236 238 243 248 253 260 266 270 273 276 279 282 286 288 290 293 295 298 301 302 305 310 313 316
221 224 227 228 233 235 236 233 233 236 240 245 249 256 262 269 272 275 277 281 284 286 287 289 292 295 298 300 303 304 308 310 315
222 225 229 232 234 234 233 234 237 237 242 246 252 256 261 265 269 274 277 278 279 281 283 288 292 296 300 302 302 302 305 310 315
225 227 230 233 234 232 234 234 237 239 244 249 254 258 263 267 271 274 277 280 284 287 290 292 296 301 304 306 303 303 306 308 312
228 228 230 231 232 233 236 236 238 242 246 251 256 261 265 268 269 271 274 277 281 285 289 292 294 300 307 309 306 304 310 305 313
228 232 231 231 232 232 234 235 240 242 248 253 258 263 264 264 269 273 276 277 280 284 286 292 296 301 302 303 311 312 307 313 316
227 229 231 233 234 236 238 241 244 248 253 256 257 260 263 270 270 271 271 278 283 287 289 294 303 305 307 320 323 314 307 307 309
227 230 231 233 235 238 240 243 246 248 255 255 255 258 265 264 266 268 274 284 288 289 291 287 301 312 318 323 318 313 306 301 303
230 232 233 237 239 241 244 247 250 253 253 253 251 251 256 261 262 269 271 276 274 275 274 282 303 306 318 324 323 314 310 298 295
226 232 235 241 243 244 247 250 252 252 251 249 246 240 255 263 263 257 260 262 273 276 282 289 291 308 316 320 321 318 314 309 303